Tracking 17938 objects as of 22-February-2017
HD Live streaming from Space Station
objects crossing your sky now

TERRIERS

Track TERRIERS now!
10-day predictions
TERRIERS is classified as:


NORAD ID: 25735
Int'l Code: 1999-026A
Perigee: 439.3 km
Apogee: 439.3 km
Inclination: 97.2 °
Period: 93.2 minutes
Semi major axis: 6810 km
RCS: 0.4968 m2 (medium)
Launch date: May 18, 1999
Source: United States (US)
Launch site: Pegasus launched from Western Range Air Space (WRAS)
Your satellite tracking list
Your tracking list is empty





NASA's NSSDC Master Catalog

Two Line Element Set (TLE):
1 25735U 99026A   17053.21837371  .00002413  00000-0  53461-4 0  9999
2 25735  97.1679 220.3504 0006467  78.3698 281.8277 15.44734459988537
Source of the keplerian elements: AFSPC